Broken Bow, NE

3:48 AM CST on November 23, 2017 (GMT -0600)
Broken Bow Municipal

Weather History for KBBW - March, 2014

Change the Weather History Date:

Friday, March 7, 2014

  Actual Average Record
Temperature  
Mean Temperature 33 °F 34 °F  
Max Temperature 44 °F 48 °F 77 °F (2016)
Min Temperature 21 °F 21 °F -19 °F (1943)
Degree Days  
Heating Degree Days 32 31  
Month to date heating degree days 302 222  
Cooling Degree Days 0 0  
Month to date cooling degree days 0 0  
Year to date cooling degree days 0 0  
Moisture  
Dew Point 24 °F    
Average Humidity 78    
Maximum Humidity 92    
Minimum Humidity 64    
Precipitation  
Precipitation T in 0.03 in 1.36 in (1990)
Sea Level Pressure  
Sea Level Pressure 29.99 in    
Wind  
Wind Speed 19 mph (North)    
Max Wind Speed 35 mph    
Max Gust Speed 41 mph    
Visibility 6 miles    
Events Rain , Snow    
T = Trace of Precipitation, MM = Missing Value Source: NWS Daily Summary

Daily Weather History Graph

Daily Weather History Graph

Search for Another Location

Airport or City:

Trip Planner

Search our weather history database for the weather conditions in past years. The results will help you decide how hot, cold, wet, or windy it might be!

Date:

Astronomy

Mar. 07, 2014 Rise Set
Actual Time 7:03 AM CST 6:36 PM CST
Civil Twilight 6:35 AM CST 7:03 PM CST
Nautical Twilight 6:03 AM CST 7:35 PM CST
Astronomical Twilight 5:31 AM CST 8:08 PM CST
Moon 10:53 AM CST (3/7) 12:46 AM CST (3/7)
Length of Visible Light 12h 28m
Length of Day
11h 32m
Waxing Crescent, 42% of the Moon is Illuminated
Mar 7
Waxing Crescent
Mar 8
First Quarter
Mar 16
Full
Mar 23
Last Quarter
Mar 30
New

Hourly Weather History & Observations

Time (CST) Temp. Windchill Dew Point Humidity Pressure Visibility Wind Dir Wind Speed Gust Speed Precip Events Conditions
12:53 AM 37.0 °F - 33.1 °F 86% 29.70 in 10.0 mi Calm Calm - N/A   Scattered Clouds
1:53 AM 37.9 °F 32.1 °F 30.9 °F 76% 29.72 in 10.0 mi NNW 8.1 mph - N/A   Clear
2:53 AM 44.1 °F 35.9 °F 34.0 °F 68% 29.73 in 10.0 mi NNW 19.6 mph 24.2 mph N/A   Clear
3:53 AM 41.0 °F 31.4 °F 33.1 °F 73% 29.72 in 10.0 mi North 21.9 mph - N/A   Clear
4:53 AM 39.9 °F 30.2 °F 32.0 °F 73% 29.75 in 10.0 mi North 20.7 mph 27.6 mph N/A   Clear
5:53 AM 37.0 °F 27.4 °F 32.0 °F 82% 29.81 in 10.0 mi North 17.3 mph 24.2 mph N/A   Clear
6:53 AM 36.0 °F 25.0 °F 32.0 °F 86% 29.85 in 10.0 mi North 20.7 mph - N/A   Scattered Clouds
7:28 AM 35.6 °F 25.5 °F 32.0 °F 87% 29.84 in 10.0 mi North 17.3 mph 28.8 mph N/A   Mostly Cloudy
7:53 AM 34.0 °F 21.5 °F 30.9 °F 89% 29.90 in 8.0 mi North 24.2 mph 33.4 mph N/A   Overcast
8:15 AM 33.8 °F 20.8 °F 30.2 °F 87% 29.87 in 6.0 mi North 26.5 mph 34.5 mph N/A   Overcast
8:53 AM 33.1 °F 20.1 °F 28.9 °F 85% 29.94 in 6.0 mi North 25.3 mph 35.7 mph N/A   Mostly Cloudy
9:18 AM 33.8 °F 21.0 °F 28.4 °F 81% 29.90 in 8.0 mi North 25.3 mph 33.4 mph N/A   Scattered Clouds
9:53 AM 33.1 °F 18.7 °F 27.0 °F 78% 29.96 in 9.0 mi North 32.2 mph 38.0 mph N/A   Partly Cloudy
10:53 AM 33.1 °F 18.2 °F 25.0 °F 72% 29.98 in 8.0 mi North 34.5 mph 41.4 mph N/A   Mostly Cloudy
11:11 AM 32.0 °F 17.4 °F 24.8 °F 75% 29.95 in 8.0 mi North 31.1 mph 35.7 mph N/A   Mostly Cloudy
11:24 AM 32.0 °F 17.9 °F 24.8 °F 75% 29.96 in 9.0 mi North 28.8 mph 35.7 mph N/A   Scattered Clouds
11:53 AM 33.1 °F 20.9 °F 23.0 °F 66% 30.04 in 10.0 mi North 21.9 mph 31.1 mph N/A   Unknown
12:37 PM 30.2 °F 17.4 °F 21.2 °F 69% 30.00 in 9.0 mi North 20.7 mph 27.6 mph N/A   Overcast
12:51 PM 28.4 °F 15.4 °F 24.8 °F 86% 30.00 in 1.8 mi North 19.6 mph 31.1 mph N/A Snow Light Snow
12:53 PM 28.9 °F 15.1 °F 24.1 °F 82% 30.06 in 1.5 mi North 23.0 mph 31.1 mph N/A Snow Light Snow
1:33 PM 26.6 °F 12.0 °F 24.8 °F 93% 30.00 in 1.0 mi North 23.0 mph - 0.00 in Snow Light Snow
1:48 PM 26.6 °F 12.7 °F 24.8 °F 93% 30.00 in 1.0 mi North 20.7 mph 31.1 mph 0.00 in Snow Light Snow
1:53 PM 27.0 °F 11.9 °F 24.1 °F 89% 30.06 in 0.8 mi North 25.3 mph - 0.00 in Snow Light Snow
2:10 PM 26.6 °F 11.1 °F 23.0 °F 86% 29.99 in 1.0 mi North 26.5 mph 32.2 mph 0.00 in Snow Light Snow
2:17 PM 26.6 °F 11.7 °F 24.8 °F 93% 29.99 in 1.5 mi North 24.2 mph 32.2 mph 0.00 in Snow Light Snow
2:33 PM 26.6 °F 12.0 °F 23.0 °F 86% 30.00 in 2.5 mi North 23.0 mph 29.9 mph 0.00 in Snow Light Snow
2:42 PM 26.6 °F 11.7 °F 23.0 °F 86% 29.99 in 1.8 mi North 24.2 mph 32.2 mph 0.00 in Snow Light Snow
2:53 PM 26.1 °F 10.4 °F 21.9 °F 84% 30.06 in 2.5 mi North 26.5 mph 33.4 mph 0.00 in Snow Light Snow
2:58 PM 26.6 °F 10.8 °F 21.2 °F 80% 30.00 in 1.8 mi North 27.6 mph 33.4 mph 0.00 in Snow Light Snow
3:31 PM 24.8 °F 9.6 °F 21.2 °F 86% 30.01 in 1.0 mi North 23.0 mph 31.1 mph 0.00 in Snow Light Snow
3:41 PM 26.6 °F 13.4 °F 21.2 °F 80% 30.01 in 1.2 mi North 18.4 mph 26.5 mph 0.00 in Snow Light Snow
3:53 PM 26.1 °F 11.6 °F 21.9 °F 84% 30.08 in 2.5 mi North 21.9 mph 32.2 mph 0.00 in Snow Light Snow
3:57 PM 26.6 °F 12.4 °F 21.2 °F 80% 30.02 in 3.0 mi North 21.9 mph 28.8 mph 0.00 in Snow Light Snow
4:06 PM 26.6 °F 11.7 °F 21.2 °F 80% 30.02 in 4.0 mi North 24.2 mph 29.9 mph 0.00 in Snow Light Snow
4:21 PM 26.6 °F 13.1 °F 21.2 °F 80% 30.03 in 8.0 mi North 19.6 mph 31.1 mph 0.00 in Rain Light Freezing Rain
4:49 PM 26.6 °F 11.1 °F 19.4 °F 74% 30.04 in 8.0 mi North 26.5 mph 32.2 mph 0.00 in   Overcast
4:53 PM 27.0 °F 12.2 °F 19.9 °F 75% 30.10 in 8.0 mi North 24.2 mph 32.2 mph 0.00 in   Overcast
5:53 PM 26.1 °F 12.3 °F 19.0 °F 75% 30.14 in 9.0 mi North 19.6 mph 28.8 mph N/A   Overcast
6:53 PM 25.0 °F 12.2 °F 18.0 °F 75% 30.18 in 10.0 mi North 16.1 mph 23.0 mph N/A   Overcast
7:53 PM 23.0 °F 11.7 °F 17.1 °F 78% 30.21 in 10.0 mi North 11.5 mph - N/A   Mostly Cloudy
8:53 PM 23.0 °F 13.9 °F 17.1 °F 78% 30.24 in 10.0 mi North 8.1 mph - N/A   Clear
9:53 PM 23.0 °F 13.1 °F 18.0 °F 81% 30.26 in 10.0 mi North 9.2 mph - N/A   Clear
10:53 PM 23.0 °F 11.7 °F 18.0 °F 81% 30.28 in 10.0 mi North 11.5 mph - N/A   Clear
11:53 PM 21.9 °F 10.4 °F 16.0 °F 78% 30.30 in 10.0 mi North 11.5 mph - N/A   Scattered Clouds